This demonstration page uses our WeatherBlox Daily Observations layout. Learn more.

Left ArrowRight Arrow

Hourly Observations for September 16, 2021

Temp ( °F °C ) Dew Point ( °F °C ) Humidity (%) Winds ( mph kmh ) Pressure ( in mb ) Visibility ( mi km ) Precip ( " mm )
12:54 am 00:54 Clear 71 21.7 63 17.2 76 76 S 12 19 29.88 1012 10 16 N/A
1:54 am 01:54 Clear 70 21.1 63 17.2 79 79 S 13 20 29.88 1012 10 16 N/A
2:54 am 02:54 Clear 69 20.6 63 17.2 81 81 S 13 20 29.88 1012 10 16 N/A
3:54 am 03:54 Clear 68 20 63 17.2 84 84 S 10 17 29.87 1012 10 16 N/A
4:54 am 04:54 Clear 68 20 62 16.7 81 81 S 12 19 29.87 1012 10 16 N/A
5:54 am 05:54 Clear 67 19.4 61 16.1 81 81 S 10 17 29.88 1012 10 16 N/A
6:54 am 06:54 Clear 65 18.3 59 15 81 81 S 8 13 29.88 1012 10 16 N/A
7:54 am 07:54 Sunny 67 19.4 60 15.6 79 79 S 10 17 29.89 1012 10 16 N/A
8:54 am 08:54 Sunny 72 22.2 61 16.1 68 68 S 13 20 29.89 1012 10 16 N/A
9:54 am 09:54 Sunny 76 24.4 62 16.7 62 62 S 17 28 29.88 1012 10 16 N/A
10:54 am 10:54 Sunny 82 27.8 64 17.8 55 55 S 12 19 29.87 1012 10 16 N/A
11:54 am 11:54 Sunny 86 30 64 17.8 48 48 S 22 35 29.84 1011 10 16 N/A
12:54 pm 12:54 Sunny 89 31.7 64 17.8 43 43 S 22 35 29.83 1010 10 16 N/A
1:54 pm 13:54 Sunny 90 32.2 64 17.8 42 42 SSW 21 33 29.80 1009 10 16 N/A
2:54 pm 14:54 Sunny 91 32.8 65 18.3 42 42 S 22 35 29.78 1009 10 16 N/A
3:54 pm 15:54 Sunny 92 33.3 63 17.2 38 38 S 18 30 29.77 1008 10 16 N/A
4:54 pm 16:54 Sunny 91 32.8 63 17.2 39 39 S 18 30 29.77 1008 10 16 N/A
5:54 pm 17:54 Sunny 89 31.7 62 16.7 41 41 S 21 33 29.76 1008 10 16 N/A
6:54 pm 18:54 Sunny 86 30 61 16.1 43 43 S 18 30 29.78 1009 10 16 N/A
7:54 pm 19:54 Clear 83 28.3 61 16.1 48 48 S 12 19 29.80 1009 10 16 N/A
8:54 pm 20:54 Clear 79 26.1 62 16.7 56 56 S 13 20 29.81 1009 10 16 N/A
9:54 pm 21:54 Clear 78 25.6 63 17.2 60 60 S 15 24 29.82 1010 10 16 N/A
10:54 pm 22:54 Clear 77 25 63 17.2 62 62 S 16 26 29.82 1010 10 16 N/A
11:54 pm 23:54 Clear 76 24.4 63 17.2 64 64 S 15 24 29.83 1010 10 16 N/A

Powered by AerisWeather